sat.trackr.live / text

‹ back to catalog

STARLINK-4380

NORAD 53650 · 2022-105C

PAYLOAD ACTIVE UNKNOWN

§ Identity

Operator
Country
US
Launch date
2022-08-31
Launch site
AFWTR
Launch vehicle
Mass (kg)
RCS (m²)

Purposes: comms

External: N2YO · Heavens-Above · Gunter

§ Orbital elements

Epoch: 2026-05-24T15:03:12.699648Z

Period
95.64 min
Inclination
97.4538°
Eccentricity
0.0002471
Mean motion
15.05654892 rev/d
Perigee alt
547.8 km
Apogee alt
551.2 km
Semi-major
6,927.6 km
B*
3.0331e-5
RAAN
24.6313°
Arg perigee
70.9382°
Mean anomaly
289.2112°
Rev number
20,465

§ Raw data

STARLINK-43801 53650U 22105C   26144.62723032  .00000379  00000+0  30331-4 0  99932 53650  97.4538  24.6313 0002471  70.9382 289.2112 15.05654892204656

JSON: /api/v1/satellites/53650 · /tle

For live sub-satellite position, see the globe view (requires WebGL).

§ Visibility from observer

Set your observer location to see the next 7 days of passes ≥ 10°. The values pass through the URL so the page stays shareable.

No JS? Fill the form by hand. The geolocation button needs JavaScript.